NIMIQ 5

Last updated on Sun Jun 21 2026 00:03:04 GMT+0000 (Coordinated Universal Time)

1 35873U 09050A 26171.37759707 .00000000 00000+0 00000+0 0 9990 2 35873 0.0204 10.6229 0002780 73.2484 247.9606 1.00269631 61378
UTC large
Height (km)
Speed (km/s)
/
Latitude / Longitude
Inclination (degrees)
Orbital Period (minutes)
Azimuth
Elevation
Range (km)
Doppler Factor

Next 0 passes for location: London (51.5072 / 0.1276)

No passes found over London.
NIMIQ 5